Location: Cueva de Ratón
(10.1013°N, 67.6606°W)
Time: 02:47:31
(UTC+00:00)

Cosmos 2221 - Pass Details

Date: 02 December 2023
Orbit: 584 x 605 km, 82.5° (Epoch: 20 February)

Event Time Altitude Azimuth Distance (km) Brightness Sun altitude
Rises 23:25:30 0° 201° (SSW) 2,827 6.6 -18.8°
Reaches altitude 10° 23:27:52 10° 210° (SSW) 1,921 5.8 -19.4°
Maximum altitude 23:31:41 33° 275° (W) 999 4.2 -20.2°
Drops below altitude 10° 23:35:29 10° 340° (NNW) 1,907 5.1 -21.1°
Sets 23:37:50 0° 350° (N) 2,803 5.8 -21.7°
